sat.trackr.live / text

‹ back to catalog

STARLINK-4212

NORAD 52846 · 2022-062S

PAYLOAD ACTIVE UNKNOWN

§ Identity

Operator
Country
US
Launch date
2022-06-17
Launch site
AFETR
Launch vehicle
Mass (kg)
RCS (m²)

Purposes: comms

External: N2YO · Heavens-Above · Gunter

§ Orbital elements

Epoch: 2026-09-20T04:55:11.283744Z

Period
94.01 min
Inclination
53.1586°
Eccentricity
0.0001442
Mean motion
15.31700840 rev/d
Perigee alt
469.7 km
Apogee alt
471.7 km
Semi-major
6,848.9 km
B*
-8.9461e-7
RAAN
230.4368°
Arg perigee
91.9197°
Mean anomaly
268.1970°
Rev number
23,529

§ Raw data

STARLINK-42121 52846U 22062S   26263.20499171 -.00000393  00000+0 -89461-6 0  99992 52846  53.1586 230.4368 0001442  91.9197 268.1970 15.31700840235291

JSON: /api/v1/satellites/52846 · /tle

For live sub-satellite position, see the globe view (requires WebGL).

§ Visibility from observer

Set your observer location to see the next 7 days of passes ≥ 10°. The values pass through the URL so the page stays shareable.

No JS? Fill the form by hand. The geolocation button needs JavaScript.